This demonstration page uses our WeatherBlox Daily Observations layout. Learn more.

Left ArrowRight Arrow

39.95238, -75.16362

Hourly Observations for October 7, 2022

Temp ( °F °C ) Dew Point ( °F °C ) Humidity (%) Winds ( mph kmh ) Pressure ( in mb ) Visibility ( mi km ) Precip ( " mm )
12:54 am 00:54 Mostly Clear 62 16.7 55 12.8 78 78 S 3 6 29.98 1015 10 16 0.00 0.00
1:54 am 01:54 Partly Cloudy 60 15.6 55 12.8 83 83 WSW 7 11 29.98 1015 10 16 0.00 0.00
2:54 am 02:54 Mostly Clear 59 15 55 12.8 87 87 W 5 7 29.98 1015 10 16 0.00 0.00
3:54 am 03:54 Clear 60 15.6 56 13.3 86 86 SW 5 7 29.97 1015 10 16 0.00 0.00
4:54 am 04:54 Clear 57 13.9 54 12.2 89 89 Calm 29.97 1015 10 16 0.00 0.00
5:54 am 05:54 Clear 58 14.4 54 12.2 87 87 SW 3 6 29.98 1015 10 16 0.00 0.00
6:54 am 06:54 Clear 58 14.4 54 12.2 87 87 SSW 5 7 29.99 1016 10 16 0.00 0.00
7:54 am 07:54 Sunny 58 14.4 54 12.2 87 87 SW 3 6 30.01 1016 10 16 0.00 0.00
8:54 am 08:54 Sunny 62 16.7 54 12.2 75 75 SW 9 15 30.02 1017 10 16 0.00 0.00
9:54 am 09:54 Sunny 65 18.3 55 12.8 70 70 WSW 9 15 30.02 1017 10 16 0.00 0.00
10:54 am 10:54 Sunny 70 21.1 54 12.2 57 57 WSW 8 13 30.01 1016 10 16 0.00 0.00
11:54 am 11:54 Sunny 74 23.3 51 10.6 45 45 WSW 7 11 30.01 1016 10 16 0.00 0.00
12:54 pm 12:54 Sunny 76 24.4 50 10 40 40 WSW 10 17 29.99 1016 10 16 0.00 0.00
1:54 pm 13:54 Sunny 78 25.6 50 10 37 37 SW 13 20 29.96 1015 10 16 0.00 0.00
2:54 pm 14:54 Sunny 79 26.1 50 10 36 36 WSW 13 20 29.95 1014 10 16 0.00 0.00
3:54 pm 15:54 Sunny 79 26.1 51 10.6 38 38 WSW 10 17 29.95 1014 10 16 0.00 0.00
4:54 pm 16:54 Partly Cloudy 77 25 53 11.7 43 43 SW 10 17 29.96 1014 10 16 0.00 0.00
5:54 pm 17:54 Partly Cloudy 75 23.9 54 12.2 48 48 WSW 7 11 29.96 1015 10 16 0.00 0.00
6:54 pm 18:54 Partly Cloudy 73 22.8 53 11.7 50 50 WSW 7 11 29.97 1015 10 16 0.00 0.00
7:54 pm 19:54 Mostly Cloudy 71 21.7 53 11.7 53 53 VRB 7 11 29.99 1016 10 16 0.00 0.00
8:54 pm 20:54 Mostly Cloudy 69 20.6 53 11.7 57 57 NNW 15 24 30.02 1017 10 16 0.00 0.00
9:54 pm 21:54 Cloudy 68 20 52 11.1 57 57 NNW 9 15 30.05 1018 10 16 0.00 0.00
10:54 pm 22:54 Cloudy with Light Rain 65 18.3 54 12.2 68 68 NNW 12 19 30.08 1019 10 16 0.01 0.13
11:54 pm 23:54 Cloudy 62 16.7 45 7.2 53 53 NW 13 20 30.10 1019 10 16 0.01 0.25

Powered by AerisWeather